Weather History for Owatonna, MN

Change the Weather History Date:

Monday, December 19, 2011

  Actual Average Record
Temperature  
Mean Temperature 34 °F -  
Max Temperature 37 °F 26 °F 45 °F (1979)
Min Temperature 30 °F 10 °F -32 °F (1983)
Degree Days  
Heating Degree Days 32    
Moisture  
Dew Point 28 °F    
Average Humidity 84    
Maximum Humidity 93    
Minimum Humidity 69    
Precipitation  
Precipitation 0.00 in - - ()
Sea Level Pressure  
Sea Level Pressure 30.02 in    
Wind  
Wind Speed 10 mph (NW)    
Max Wind Speed 18 mph    
Max Gust Speed 24 mph    
Visibility 10 miles    
Events      
Averages and records for this station are not official NWS values.
T = Trace of Precipitation, MM = Missing Value Source: NWS Daily Summary

Daily Weather History Graph

Daily Weather History Graph

Search for Another Location

Airport:

Trip Planner

Search our weather history database for the weather conditions in past years. The results will help you decide how hot, cold, wet, or windy it might be!

Date:

Astronomy

Dec. 19, 2011 Rise Set
Actual Time 7:43 AM CST 4:36 PM CST
Civil Twilight 7:10 AM CST 5:09 PM CST
Nautical Twilight 6:33 AM CST 5:46 PM CST
Astronomical Twilight 5:58 AM CST 6:21 PM CST
Moon 1:46 AM CST (12/19) 12:42 PM CST (12/19)
Length of Visible Light 9h 59m
Length of Day
8h 52m
Waning Crescent, 31% of the Moon is Illuminated
Dec 19
Waning Crescent
Dec 24
New
Jan 1
First Quarter
Jan 9
Full
Jan 16
Last Quarter

Hourly Weather History & Observations

Time (CST) Temp. Windchill Dew Point Humidity Pressure Visibility Wind Dir Wind Speed Gust Speed Precip Events Conditions
12:13 AM 37.4 °F 30.8 °F 33.8 °F 87% 29.75 in 7.0 mi WSW 9.2 mph - N/A   Clear
12:33 AM 35.6 °F 29.2 °F 33.8 °F 93% 29.76 in 7.0 mi WSW 8.1 mph - N/A   Clear
12:53 AM 35.6 °F 30.7 °F 33.8 °F 93% 29.76 in 7.0 mi WSW 5.8 mph - N/A   Clear
1:14 AM 35.6 °F 30.7 °F 33.8 °F 93% 29.77 in 7.0 mi WSW 5.8 mph - N/A   Clear
1:33 AM 35.6 °F 30.7 °F 33.8 °F 93% 29.78 in 7.0 mi West 5.8 mph - N/A   Clear
1:53 AM 35.6 °F 29.9 °F 33.8 °F 93% 29.78 in 7.0 mi WSW 6.9 mph - N/A   Clear
2:13 AM 35.6 °F 29.9 °F 32.0 °F 87% 29.79 in 7.0 mi West 6.9 mph - N/A   Clear
2:33 AM 33.8 °F 29.6 °F 32.0 °F 93% 29.82 in 7.0 mi WSW 4.6 mph - N/A   Clear
2:53 AM 33.8 °F 30.8 °F 32.0 °F 93% 29.82 in 10.0 mi West 3.5 mph - N/A   Clear
3:13 AM 33.8 °F 28.6 °F 30.2 °F 87% 29.83 in 10.0 mi NW 5.8 mph - N/A   Clear
3:33 AM 33.8 °F 27.7 °F 30.2 °F 87% 29.84 in 10.0 mi NW 6.9 mph - N/A   Clear
3:53 AM 33.8 °F 26.4 °F 30.2 °F 87% 29.85 in 10.0 mi NNW 9.2 mph - N/A   Clear
4:13 AM 33.8 °F 25.3 °F 30.2 °F 87% 29.86 in 10.0 mi NW 11.5 mph - N/A   Clear
4:33 AM 33.8 °F 25.3 °F 30.2 °F 87% 29.87 in 10.0 mi NNW 11.5 mph - N/A   Clear
4:53 AM 33.8 °F 25.8 °F 30.2 °F 87% 29.88 in 10.0 mi NNW 10.4 mph - N/A   Clear
5:13 AM 33.8 °F 25.3 °F 30.2 °F 87% 29.90 in 10.0 mi NNW 11.5 mph - N/A   Clear
5:33 AM 33.8 °F 25.3 °F 30.2 °F 87% 29.91 in 10.0 mi NNW 11.5 mph 17.3 mph N/A   Clear
5:53 AM 33.8 °F 25.3 °F 30.2 °F 87% 29.93 in 10.0 mi NW 11.5 mph - N/A   Clear
6:13 AM 33.8 °F 25.3 °F 30.2 °F 87% 29.94 in 10.0 mi NW 11.5 mph - N/A   Clear
6:33 AM 32.0 °F 23.6 °F 30.2 °F 93% 29.96 in 10.0 mi NW 10.4 mph - N/A   Clear
6:53 AM 32.0 °F 23.6 °F 30.2 °F 93% 29.97 in 10.0 mi NW 10.4 mph - N/A   Scattered Clouds
7:13 AM 30.2 °F 22.6 °F 28.4 °F 93% 29.98 in 10.0 mi NW 8.1 mph - N/A   Scattered Clouds
7:33 AM 30.2 °F 23.4 °F 28.4 °F 93% 30.00 in 10.0 mi WNW 6.9 mph - N/A   Clear
7:53 AM 30.2 °F 23.4 °F 28.4 °F 93% 30.01 in 10.0 mi WNW 6.9 mph - N/A   Mostly Cloudy
8:13 AM 32.0 °F 23.0 °F 30.2 °F 93% 30.03 in 10.0 mi WNW 11.5 mph - N/A   Overcast
8:33 AM 32.0 °F 23.0 °F 30.2 °F 93% 30.04 in 10.0 mi NW 11.5 mph - N/A   Overcast
8:53 AM 32.0 °F 22.1 °F 28.4 °F 87% 30.05 in 10.0 mi NW 13.8 mph - N/A   Overcast
9:14 AM 30.2 °F 20.8 °F 28.4 °F 93% 30.07 in 10.0 mi WNW 11.5 mph - N/A   Overcast
9:34 AM 30.2 °F 21.3 °F 28.4 °F 93% 30.08 in 10.0 mi WNW 10.4 mph - N/A   Overcast
9:53 AM 30.2 °F 20.2 °F 28.4 °F 93% 30.10 in 10.0 mi WNW 12.7 mph - N/A   Overcast
10:15 AM 32.0 °F 22.5 °F 28.4 °F 87% 30.11 in 10.0 mi NW 12.7 mph - N/A   Overcast
10:33 AM 32.0 °F 21.2 °F 26.6 °F 80% 30.12 in 10.0 mi NW 16.1 mph - N/A   Overcast
10:53 AM 32.0 °F 21.6 °F 28.4 °F 87% 30.13 in 10.0 mi NW 15.0 mph 18.4 mph N/A   Overcast
11:13 AM 32.0 °F 20.8 °F 26.6 °F 80% 30.13 in 10.0 mi NNW 17.3 mph - N/A   Overcast
11:33 AM 32.0 °F 21.2 °F 26.6 °F 80% 30.13 in 10.0 mi NNW 16.1 mph 23.0 mph N/A   Overcast
11:54 AM 32.0 °F 20.5 °F 26.6 °F 80% 30.14 in 10.0 mi NNW 18.4 mph - N/A   Overcast
12:15 PM 32.0 °F 21.2 °F 24.8 °F 75% 30.14 in 10.0 mi NW 16.1 mph - N/A   Overcast
12:34 PM 32.0 °F 20.5 °F 26.6 °F 80% 30.12 in 10.0 mi NNW 18.4 mph 24.2 mph N/A   Overcast
12:53 PM 32.0 °F 21.6 °F 24.8 °F 75% 30.13 in 10.0 mi NNW 15.0 mph 21.9 mph N/A   Mostly Cloudy
1:13 PM 32.0 °F 21.2 °F 24.8 °F 75% 30.14 in 10.0 mi NW 16.1 mph - N/A   Overcast
1:33 PM 32.0 °F 21.2 °F 24.8 °F 75% 30.15 in 10.0 mi NNW 16.1 mph - N/A   Overcast
1:54 PM 32.0 °F 21.6 °F 24.8 °F 75% 30.15 in 10.0 mi NW 15.0 mph - N/A   Overcast
2:14 PM 32.0 °F 22.5 °F 24.8 °F 75% 30.14 in 10.0 mi NNW 12.7 mph 18.4 mph N/A   Overcast
2:34 PM 30.2 °F 20.8 °F 23.0 °F 75% 30.14 in 10.0 mi NNW 11.5 mph - N/A   Overcast
2:53 PM 32.0 °F 22.5 °F 23.0 °F 69% 30.14 in 10.0 mi NNW 12.7 mph - N/A   Overcast
3:13 PM 30.2 °F 20.2 °F 23.0 °F 75% 30.15 in 10.0 mi NNW 12.7 mph - N/A   Mostly Cloudy
3:34 PM 32.0 °F 23.6 °F 23.0 °F 69% 30.16 in 10.0 mi North 10.4 mph 18.4 mph N/A   Mostly Cloudy
3:54 PM 32.0 °F 24.8 °F 24.8 °F 75% 30.17 in 10.0 mi North 8.1 mph - N/A   Mostly Cloudy
4:14 PM 30.2 °F 23.4 °F 23.0 °F 75% 30.18 in 10.0 mi North 6.9 mph - N/A   Overcast
4:34 PM 30.2 °F 21.9 °F 23.0 °F 75% 30.20 in 10.0 mi North 9.2 mph - N/A   Mostly Cloudy
4:53 PM 30.2 °F 25.4 °F 23.0 °F 75% 30.21 in 10.0 mi North 4.6 mph - N/A   Overcast
5:13 PM 30.2 °F 21.3 °F 21.2 °F 69% 30.22 in 10.0 mi North 10.4 mph - N/A   Overcast
5:33 PM 30.2 °F 24.3 °F 21.2 °F 69% 30.22 in 10.0 mi North 5.8 mph - N/A   Overcast
5:54 PM 30.2 °F 24.3 °F 21.2 °F 69% 30.23 in 10.0 mi North 5.8 mph - N/A   Overcast
6:14 PM 30.2 °F 25.4 °F 21.2 °F 69% 30.24 in 10.0 mi North 4.6 mph - N/A   Overcast
6:34 PM 28.4 °F 24.6 °F 21.2 °F 74% 30.25 in 10.0 mi North 3.5 mph - N/A   Overcast
7:14 PM 28.4 °F 24.6 °F 21.2 °F 74% 30.25 in 10.0 mi NNE 3.5 mph - N/A   Scattered Clouds
7:33 PM 26.6 °F 22.6 °F 21.2 °F 80% 30.24 in 10.0 mi NNE 3.5 mph - N/A   Clear
7:53 PM 26.6 °F - 21.2 °F 80% 30.23 in 10.0 mi Calm Calm - N/A   Clear
8:13 PM 24.8 °F - 21.2 °F 86% 30.23 in 10.0 mi Calm Calm - N/A   Clear
8:33 PM 24.8 °F - 21.2 °F 86% 30.22 in 10.0 mi Calm Calm - N/A   Clear
8:53 PM 24.8 °F - 21.2 °F 86% 30.23 in 10.0 mi Calm Calm - N/A   Clear
9:13 PM 23.0 °F - 21.2 °F 93% 30.24 in 10.0 mi Calm Calm - N/A   Clear
9:33 PM 23.0 °F - 21.2 °F 93% 30.24 in 10.0 mi Calm Calm - N/A   Clear
9:54 PM 21.2 °F - 19.4 °F 93% 30.25 in 10.0 mi Calm Calm - N/A   Clear
10:14 PM 21.2 °F - 19.4 °F 93% 30.25 in 10.0 mi Calm Calm - N/A   Clear
10:34 PM 21.2 °F - 19.4 °F 93% 30.23 in 10.0 mi Calm Calm - N/A   Clear
10:54 PM 19.4 °F - 17.6 °F 93% 30.23 in 10.0 mi Calm Calm - N/A   Clear
11:14 PM 19.4 °F - 17.6 °F 93% 30.23 in 10.0 mi Calm Calm - N/A   Clear
11:34 PM 19.4 °F - 17.6 °F 93% 30.22 in 10.0 mi Calm Calm - N/A   Clear